Showing default

MMS 4, 40485

Orbit data source: Space-Track

MMS 4, 40485 is a payload satellite owned by GSFC (US) in HEO that was launched on Fri, 13 Mar 2015 UTC via an ATLAS V 421 launch vehicle from the Air Force Eastern Test Range (AFETR). Payload-class satellites include a variety of spacecraft equipped with specific instruments for various scientific and technological missions. These include communications satellites like Starlink; space stations such as the ISS; scientific satellites like the Hubble; Earth observation satellites from companies like Planet Labs, Umbra, and HawkEye 360; GPS; miniature CubeSats for education and research; and military/defense satellites.

Loading next visibility...
Identifier
40485, 2015-011D
Orbit
HEO
Country
Flag of USUS
Related business
Manufacturer
GSFC
Mission
Operational Civil Science
Bus & Motor
MMS-SMART, GSFC
Mass
1,360 kg wet, 1,000 kg dry
Launch date (UTC)
2015-03-13 (11 years ago)
Launch vehicle
ATLAS V 421
Launch site
Air Force Eastern Test Range (AFETR)
Object type
Payload
Rocket body
Debris
Shape & HBR
Oct Cyl + 1 Ant, 56.1 m
Radar Cross Section
24.177 m², Large (>1 m²)

Expand to show TLE details & history
Last TLE update: 4 hours ago

TLE from 4 hours ago
0 MMS 4
1 40485U 15011D   25342.66670139 -.00000532  00000-0  00000-0 0  9994
2 40485  69.1982 351.5869 8510767 163.2819 305.9494  0.28272778  1366
Epoch: 2025-12-08T16:00Z
TLE epoch observation values (Epoch: 2025-12-08T16:00:03.000Z)
Latitude
9.00912°
Longitude
37.86411°
Altitude
107,678.125 km
Speed
1.71 km/s
True Right ascension
23h 42m 09s
True Declination
9° 00' 21"
Sunlit
Object was in daylight at epoch
Visualization orbit readout
Latitude
Unknown
Longitude
Unknown
Altitude
Unknown
Speed
Unknown
Apparent Right ascension
Unknown
Apparent Declination
Unknown
Sunlit
N/A
Visualization observer readout
Local Sidereal Time
18:38:09
Azimuth
Unknown
Elevation
Unknown
Doppler factor
Unknown
Orbital elements
Apogee altitude
175,135.78 km
Perigee altitude
8,225.067 km
Semi-major axis
98,058.561 km
Eccentricity
0.85108
Inclination
69.1982°
RAAN
351.5869°
Arg. of periapsis
163.2819°
True anomaly
205.9673°
Mean anomaly
305.9494°
Eccentric anomaly
258.2143°
Mean motion
0.07068 °/min
Orbital period
5,093.16 mins
BSTAR
0
Loading maneuver chart data...
Computing Atmospheric mass density...
Loading historical data...
Loading historical data...
Loading historical data...
Loading historical data...
Loading historical data...
Loading historical data...
Loading historical data...
Other satellites on launch #11 in the year 2015 (2015-03-13 UTC)

Documentation

Showing up to 5 results
|